Regional Weather Roundup
Issued by NWS

Home | Current Version | Previous Version | Text Only | Print | Product List | Glossary Off
Versions: 1 2 3 4 5 6 7 8 9 10 11 12 13 14 15 16 17 18 19 20 21 22 23 24 25 26 27 28 29 30 31 32 33 34 35 36 37 38 39 40 41 42 43 44 45 46 47 48 49 50

000
ASUS45 KCYS 021710
RWRWY

WYOMING REGIONAL WEATHER ROUNDUP
NATIONAL WEATHER SERVICE CHEYENNE WY
1100 AM MDT THU JUL 02 2015

NOTE:  "FAIR" INDICATES FEW OR NO CLOUDS BELOW 12,000 FEET
WITH NO SIGNIFICANT WEATHER AND/OR OBSTRUCTIONS TO VISIBILITY.

WYZ001-021800-
YELLOWSTONE NATIONAL PARK

CITY           SKY/WX    TMP DP  RH WIND       PRES   REMARKS
LK YELLOWSTONE   N/A     70  43  37 VRB3      30.37F
W YELLOWSTONE  NOT AVBL

$$
WYZ002>013-054>058-071-098>099-021800-
NORTHERN WYOMING

CITY           SKY/WX    TMP DP  RH WIND       PRES   REMARKS
JACKSON        SUNNY     72  52  49 CALM      30.26F
CODY           FAIR      73  52  46 NE13      30.23S
GREYBULL       FAIR      79  51  37 VRB3      30.13F
WORLAND        FAIR      77  53  43 CALM      30.16F
SHERIDAN       FAIR      78  55  44 N6        30.17F
BUFFALO        PTSUNNY   71  56  58 VRB6      30.23S
GILLETTE       FAIR      74  56  53 N8        30.18S
NEWCASTLE      NOT AVBL

$$
WYZ014>020-022>026-101>103-021800-
CENTRAL WYOMING

CITY           SKY/WX    TMP DP  RH WIND       PRES   REMARKS
BIG PINEY      FAIR      75  50  41 S14G22    30.31F
PINEDALE       FAIR      72  48  43 S7        30.33F
DUBOIS         NOT AVBL
LANDER         FAIR      75  52  44 VRB6      30.24F
RIVERTON       FAIR      75  49  39 SE5       30.24F
CASPER         FAIR      76  47  35 VRB6      30.22F
DOUGLAS        FAIR      77  55  46 NW9       30.20F

$$
WYZ021-027>030-104>119-021800-
SOUTHERN WYOMING

CITY           SKY/WX    TMP DP  RH WIND       PRES   REMARKS
EVANSTON       FAIR      80  41  24 VRB5      30.29F
FORT BRIDGER   SUNNY     79  43  27 SE3       30.32F
ROCK SPRINGS   FAIR      74  52  46 VRB7G17   30.29F
RAWLINS        FAIR      71  52  50 SE8       30.29F
LARAMIE        FAIR      70  51  51 CALM      30.32F
CHEYENNE       FAIR      74  50  42 N7        30.25F
TORRINGTON     FAIR      79  56  45 N5        30.13S

$$



USA.gov is the U.S. government's official web portal to all federal, state and local government web resources and services.